• în România
  • Lista ţărilor
  • Pe 7 zile
  • Temperatura apei
  • Hartă satelitară
  • Meteo pe hartă
  • Widget-uri
  • user-avatar
    Intrare

    Meteo pe oră la Namyur

    Astăzi, 20 Octombrie, Vineri

    Timp Temperatura Precipitaţii Vânt Presiune Umiditate
    00:00 +17°C° 0 mm 4 m/s 745 mmHg 69%
    01:00 +15°C° 0,1 mm 4 m/s 745 mmHg 72%
    02:00 +15°C° 0,1 mm 5 m/s 745 mmHg 76%
    03:00 +15°C° 0,1 mm 5 m/s 745 mmHg 80%
    04:00 +14°C° 0,1 mm 6 m/s 746 mmHg 82%
    05:00 +14°C° 0,1 mm 6 m/s 746 mmHg 84%
    06:00 +13°C° 0 mm 5 m/s 745 mmHg 90%
    07:00 +13°C° 0,1 mm 6 m/s 746 mmHg 85%
    08:00 +12°C° 0,1 mm 7 m/s 746 mmHg 80%
    09:00 +12°C° 0,1 mm 8 m/s 746 mmHg 76%
    10:00 +12°C° 0 mm 8 m/s 747 mmHg 73%
    11:00 +13°C° 0 mm 8 m/s 747 mmHg 70%
    12:00 +14°C° 0 mm 7 m/s 748 mmHg 69%
    13:00 +14°C° 0 mm 7 m/s 748 mmHg 68%
    14:00 +14°C° 0 mm 7 m/s 748 mmHg 68%
    15:00 +14°C° 0 mm 6 m/s 749 mmHg 67%
    16:00 +13°C° 0 mm 5 m/s 749 mmHg 71%
    17:00 +12°C° 0 mm 4 m/s 749 mmHg 75%
    18:00 +11°C° 0 mm 4 m/s 750 mmHg 78%
    19:00 +10°C° 0 mm 3 m/s 750 mmHg 81%
    20:00 +10°C° 0 mm 3 m/s 750 mmHg 83%
    21:00 +9°C° 0 mm 3 m/s 750 mmHg 85%
    22:00 +9°C° 0 mm 3 m/s 750 mmHg 84%
    23:00 +10°C° 0 mm 4 m/s 750 mmHg 83%

    Mâine, 21 Octombrie, Sâmbătă

    Timp Temperatura Precipitaţii Vânt Presiune Umiditate
    00:00 +10°C° 0 mm 4 m/s 750 mmHg 81%
    01:00 +10°C° 0 mm 4 m/s 749 mmHg 81%
    02:00 +10°C° 0 mm 5 m/s 749 mmHg 81%
    03:00 +10°C° 0 mm 5 m/s 748 mmHg 81%
    04:00 +10°C° 0,1 mm 6 m/s 748 mmHg 84%
    05:00 +11°C° 0,1 mm 6 m/s 748 mmHg 87%
    06:00 +11°C° 0,1 mm 6 m/s 747 mmHg 90%
    07:00 +13°C° 1,2 mm 6 m/s 747 mmHg 90%
    08:00 +13°C° 1,2 mm 6 m/s 748 mmHg 91%
    09:00 +14°C° 1,2 mm 6 m/s 748 mmHg 91%
    10:00 +14°C° 0,2 mm 6 m/s 748 mmHg 88%
    11:00 +14°C° 0,2 mm 6 m/s 748 mmHg 85%
    12:00 +14°C° 0,2 mm 6 m/s 748 mmHg 82%
    13:00 +14°C° 0 mm 6 m/s 748 mmHg 79%
    14:00 +14°C° 0 mm 6 m/s 748 mmHg 76%
    15:00 +14°C° 0 mm 6 m/s 748 mmHg 73%
    16:00 +13°C° 0 mm 5 m/s 748 mmHg 75%
    17:00 +12°C° 0 mm 5 m/s 749 mmHg 76%
    18:00 +10°C° 0 mm 5 m/s 749 mmHg 77%
    19:00 +10°C° 0 mm 5 m/s 749 mmHg 77%
    20:00 +10°C° 0 mm 6 m/s 749 mmHg 76%
    21:00 +9°C° 0 mm 6 m/s 749 mmHg 75%
    22:00 +9°C° 0 mm 7 m/s 749 mmHg 75%
    23:00 +9°C° 0 mm 7 m/s 749 mmHg 75%

    Poimâine, 22 Octombrie, Duminică

    Timp Temperatura Precipitaţii Vânt Presiune Umiditate
    00:00 +9°C° 0 mm 8 m/s 749 mmHg 75%
    01:00 +9°C° 0 mm 8 m/s 749 mmHg 75%
    02:00 +9°C° 0 mm 8 m/s 749 mmHg 76%
    03:00 +9°C° 0 mm 8 m/s 749 mmHg 77%
    04:00 +9°C° 0,1 mm 8 m/s 749 mmHg 78%
    05:00 +8°C° 0,1 mm 7 m/s 749 mmHg 79%
    06:00 +8°C° 0,1 mm 7 m/s 749 mmHg 81%
    07:00 +8°C° 0,2 mm 7 m/s 749 mmHg 81%
    08:00 +9°C° 0,2 mm 7 m/s 749 mmHg 82%
    09:00 +9°C° 0,2 mm 7 m/s 749 mmHg 83%
    10:00 +9°C° 0,3 mm 7 m/s 750 mmHg 82%
    11:00 +9°C° 0,3 mm 7 m/s 750 mmHg 81%
    12:00 +10°C° 0,3 mm 7 m/s 750 mmHg 80%
    13:00 +10°C° 0,3 mm 6 m/s 750 mmHg 80%
    14:00 +9°C° 0,3 mm 6 m/s 750 mmHg 79%
    15:00 +9°C° 0,3 mm 6 m/s 750 mmHg 79%
    16:00 +9°C° 0,1 mm 5 m/s 750 mmHg 81%
    17:00 +8°C° 0,1 mm 5 m/s 751 mmHg 82%
    18:00 +8°C° 0,1 mm 4 m/s 751 mmHg 84%
    19:00 +8°C° 0 mm 4 m/s 751 mmHg 84%
    20:00 +8°C° 0 mm 4 m/s 752 mmHg 84%
    21:00 +8°C° 0 mm 4 m/s 752 mmHg 84%
    22:00 +8°C° 0,1 mm 4 m/s 752 mmHg 85%
    23:00 +8°C° 0,1 mm 4 m/s 753 mmHg 86%

    23 Octombrie, Luni

    Timp Temperatura Precipitaţii Vânt Presiune Umiditate
    00:00 +8°C° 0,1 mm 4 m/s 753 mmHg 87%
    01:00 +8°C° 0,1 mm 4 m/s 753 mmHg 88%
    02:00 +7°C° 0,1 mm 4 m/s 753 mmHg 89%
    03:00 +7°C° 0,1 mm 4 m/s 753 mmHg 90%
    04:00 +8°C° 0,2 mm 4 m/s 753 mmHg 91%
    05:00 +8°C° 0,2 mm 4 m/s 753 mmHg 92%
    06:00 +8°C° 0,2 mm 4 m/s 754 mmHg 93%
    07:00 +10°C° 0,2 mm 4 m/s 754 mmHg 92%
    08:00 +10°C° 0,2 mm 4 m/s 754 mmHg 91%
    09:00 +11°C° 0,2 mm 4 m/s 754 mmHg 90%
    10:00 +11°C° 0,2 mm 4 m/s 754 mmHg 90%
    11:00 +11°C° 0,2 mm 4 m/s 754 mmHg 90%
    12:00 +11°C° 0,2 mm 4 m/s 754 mmHg 90%
    13:00 +11°C° 0,8 mm 4 m/s 754 mmHg 91%
    14:00 +11°C° 0,8 mm 4 m/s 754 mmHg 93%
    15:00 +10°C° 0,8 mm 4 m/s 754 mmHg 94%
    16:00 +11°C° 1,2 mm 4 m/s 754 mmHg 94%
    17:00 +11°C° 1,2 mm 4 m/s 754 mmHg 94%
    18:00 +11°C° 1,2 mm 4 m/s 754 mmHg 95%
    19:00 +11°C° 0,7 mm 4 m/s 754 mmHg 95%
    20:00 +12°C° 0,7 mm 4 m/s 754 mmHg 95%
    21:00 +12°C° 0,7 mm 4 m/s 754 mmHg 96%
    22:00 +12°C° 0,1 mm 4 m/s 754 mmHg 96%
    23:00 +12°C° 0,1 mm 3 m/s 755 mmHg 96%

    24 Octombrie, Marţi

    Timp Temperatura Precipitaţii Vânt Presiune Umiditate
    00:00 +12°C° 0,1 mm 3 m/s 755 mmHg 97%
    01:00 +13°C° 0,1 mm 3 m/s 755 mmHg 97%
    02:00 +13°C° 0,1 mm 3 m/s 755 mmHg 97%
    03:00 +13°C° 0,1 mm 3 m/s 755 mmHg 97%
    04:00 +14°C° 0,1 mm 2 m/s 755 mmHg 98%
    05:00 +14°C° 0,1 mm 2 m/s 755 mmHg 98%
    06:00 +14°C° 0,1 mm 2 m/s 756 mmHg 98%
    07:00 +13°C° 0,1 mm 3 m/s 756 mmHg 96%
    08:00 +14°C° 0,1 mm 3 m/s 756 mmHg 95%
    09:00 +14°C° 0,1 mm 3 m/s 756 mmHg 94%
    10:00 +14°C° 0,2 mm 3 m/s 756 mmHg 94%
    11:00 +14°C° 0,2 mm 4 m/s 757 mmHg 94%
    12:00 +14°C° 0,2 mm 4 m/s 757 mmHg 94%
    13:00 +14°C° 0,2 mm 4 m/s 757 mmHg 94%
    14:00 +14°C° 0,2 mm 3 m/s 757 mmHg 94%
    15:00 +14°C° 0,2 mm 3 m/s 757 mmHg 95%
    16:00 +14°C° 0 mm 3 m/s 757 mmHg 95%
    17:00 +14°C° 0 mm 3 m/s 757 mmHg 96%
    18:00 +14°C° 0 mm 3 m/s 757 mmHg 97%
    19:00 +14°C° 0 mm 3 m/s 757 mmHg 96%
    20:00 +14°C° 0 mm 3 m/s 758 mmHg 96%
    21:00 +14°C° 0 mm 3 m/s 758 mmHg 96%
    22:00 +14°C° 0 mm 3 m/s 758 mmHg 96%
    23:00 +14°C° 0 mm 3 m/s 758 mmHg 96%

    25 Octombrie, Miercuri

    Timp Temperatura Precipitaţii Vânt Presiune Umiditate
    00:00 +14°C° 0 mm 3 m/s 758 mmHg 96%
    01:00 +14°C° 0 mm 3 m/s 758 mmHg 96%
    02:00 +14°C° 0 mm 3 m/s 757 mmHg 96%
    03:00 +14°C° 0 mm 3 m/s 757 mmHg 96%
    04:00 +13°C° 0 mm 3 m/s 757 mmHg 97%
    05:00 +13°C° 0 mm 3 m/s 757 mmHg 97%
    06:00 +13°C° 0 mm 3 m/s 757 mmHg 97%
    07:00 +13°C° 0 mm 3 m/s 758 mmHg 94%
    08:00 +14°C° 0 mm 3 m/s 758 mmHg 92%
    09:00 +16°C° 0 mm 3 m/s 758 mmHg 90%
    10:00 +17°C° 0 mm 3 m/s 758 mmHg 86%
    11:00 +18°C° 0 mm 3 m/s 758 mmHg 83%
    12:00 +19°C° 0 mm 3 m/s 757 mmHg 80%
    13:00 +19°C° 0 mm 3 m/s 757 mmHg 80%
    14:00 +19°C° 0 mm 2 m/s 757 mmHg 80%
    15:00 +19°C° 0 mm 2 m/s 757 mmHg 81%
    16:00 +18°C° 0 mm 2 m/s 757 mmHg 85%
    17:00 +17°C° 0 mm 2 m/s 757 mmHg 88%
    18:00 +16°C° 0 mm 2 m/s 757 mmHg 92%
    19:00 +16°C° 0 mm 2 m/s 757 mmHg 92%
    20:00 +15°C° 0 mm 2 m/s 757 mmHg 92%
    21:00 +15°C° 0 mm 2 m/s 757 mmHg 91%
    22:00 +15°C° 0 mm 2 m/s 757 mmHg 92%
    23:00 +15°C° 0 mm 2 m/s 757 mmHg 92%
    Arată mai mult